AEA1006 LEPA-LEMG

Flight info

Callsign AEA1006
Flight time N/A
Altitude 33000
Route BAVER M603 ALT N851 UNTOS/N0466F340 N865 VIBAS
Aircraft B738/M-SDE2E3FGHIRWXY/LB1

Departure

Time 2026-05-01 11:52
Airport Palma de Mallorca Airport (LEPA)

Arrival

Time N/A
Airport Málaga-Costa del Sol Airport (LEMG)
Time Latitude Longitude Altitude Speed Heading
2026-05-01 11:34 39.54714 2.73661 37 ft 0 kts 58°
2026-05-01 11:38 39.54707 2.73646 37 ft 2 kts 58°
2026-05-01 11:39 39.54696 2.73617 37 ft 4 kts 86°
2026-05-01 11:39 39.54702 2.73587 37 ft 4 kts 135°
2026-05-01 11:39 39.54722 2.73568 34 ft 4 kts 149°
2026-05-01 11:39 39.54735 2.73558 37 ft 0 kts 149°
2026-05-01 11:47 39.54723 2.73567 34 ft 4 kts 148°
2026-05-01 11:47 39.54691 2.73593 33 ft 6 kts 148°
2026-05-01 11:47 39.54652 2.73620 37 ft 6 kts 163°
2026-05-01 11:48 39.54609 2.73630 37 ft 6 kts 159°
2026-05-01 11:48 39.54569 2.73634 37 ft 6 kts 204°
2026-05-01 11:48 39.54539 2.73595 37 ft 6 kts 236°
2026-05-01 11:48 39.54509 2.73535 37 ft 10 kts 237°
2026-05-01 11:49 39.54460 2.73436 37 ft 16 kts 239°
2026-05-01 11:49 39.54403 2.73312 37 ft 16 kts 239°
2026-05-01 11:49 39.54347 2.73192 37 ft 15 kts 230°
2026-05-01 11:49 39.54274 2.73205 37 ft 13 kts 112°
2026-05-01 11:50 39.54267 2.73305 37 ft 7 kts 90°
2026-05-01 11:50 39.54268 2.73371 37 ft 7 kts 89°
2026-05-01 11:50 39.54263 2.73435 37 ft 7 kts 112°
2026-05-01 11:50 39.54272 2.73478 37 ft 0 kts 56°
2026-05-01 11:51 39.54284 2.73502 36 ft 19 kts 56°
2026-05-01 11:52 39.54468 2.73887 37 ft 80 kts 59°
2026-05-01 11:52 39.54849 2.74699 37 ft 128 kts 59°
2026-05-01 11:52 39.55378 2.75793 269 ft 144 kts 57°
2026-05-01 11:52 39.55915 2.76912 727 ft 155 kts 56°
2026-05-01 11:53 39.56497 2.78153 1210 ft 159 kts 56°
2026-05-01 11:53 39.57077 2.79396 1778 ft 166 kts 58°
2026-05-01 11:53 39.57698 2.80766 2170 ft 184 kts 58°
2026-05-01 11:53 39.58441 2.82128 2805 ft 182 kts 54°
2026-05-01 11:54 39.59135 2.83476 3449 ft 185 kts 57°
2026-05-01 11:54 39.59820 2.85101 3210 ft 231 kts 62°
2026-05-01 11:54 39.60686 2.87039 3322 ft 260 kts 59°
2026-05-01 11:54 39.61581 2.89037 4295 ft 247 kts 60°
2026-05-01 11:55 39.62444 2.90872 5441 ft 228 kts 50°
2026-05-01 11:55 39.63783 2.91857 6118 ft 235 kts
2026-05-01 11:55 39.65397 2.91395 6544 ft 249 kts 324°
2026-05-01 11:55 39.66529 2.89704 7103 ft 247 kts 296°
2026-05-01 11:56 39.67140 2.87654 7805 ft 243 kts 281°
2026-05-01 11:56 39.67493 2.85510 8427 ft 243 kts 277°
2026-05-01 11:56 39.67831 2.83383 9119 ft 241 kts 278°
2026-05-01 11:56 39.68147 2.81251 9850 ft 239 kts 276°
2026-05-01 11:57 39.68369 2.79105 10456 ft 241 kts 274°
2026-05-01 11:57 39.68512 2.76915 11031 ft 243 kts 269°
2026-05-01 11:57 39.68564 2.74700 11596 ft 250 kts 275°
2026-05-01 11:57 39.69177 2.72540 11820 ft 273 kts 304°
2026-05-01 11:58 39.70357 2.70474 12048 ft 293 kts 295°
2026-05-01 11:58 39.71211 2.67953 12220 ft 315 kts 289°
2026-05-01 11:58 39.72953 2.62297 12522 ft 358 kts 291°
2026-05-01 11:59 39.73923 2.59264 12659 ft 376 kts 291°
2026-05-01 11:59 39.74936 2.56053 12905 ft 389 kts 287°
2026-05-01 11:59 39.75284 2.52567 13348 ft 393 kts 263°
2026-05-01 12:00 39.72936 2.46258 14524 ft 395 kts 236°
2026-05-01 12:00 39.71478 2.43254 15060 ft 399 kts 238°
2026-05-01 12:00 39.68601 2.37092 16284 ft 402 kts 238°
2026-05-01 12:01 39.67144 2.33969 16797 ft 407 kts 238°
2026-05-01 12:01 39.65676 2.30813 17396 ft 408 kts 239°
2026-05-01 12:01 39.64202 2.27633 17988 ft 411 kts 238°
2026-05-01 12:01 39.62723 2.24432 18453 ft 416 kts 238°
2026-05-01 12:02 39.61210 2.21209 18888 ft 419 kts 238°
2026-05-01 12:02 39.59691 2.17976 19375 ft 421 kts 238°
2026-05-01 12:02 39.58191 2.14753 19844 ft 423 kts 238°
2026-05-01 12:02 39.56663 2.11463 20308 ft 426 kts 238°
2026-05-01 12:03 39.55129 2.08156 20761 ft 429 kts 238°
2026-05-01 12:03 39.53603 2.04866 21186 ft 431 kts 238°
2026-05-01 12:03 39.52040 2.01528 21619 ft 434 kts 238°
2026-05-01 12:03 39.50468 1.98175 22047 ft 436 kts 238°
2026-05-01 12:04 39.48888 1.94808 22457 ft 438 kts 238°
2026-05-01 12:04 39.47294 1.91414 22857 ft 441 kts 238°
2026-05-01 12:04 39.45708 1.88045 23259 ft 443 kts 237°
2026-05-01 12:04 39.44103 1.84625 23643 ft 445 kts 237°
2026-05-01 12:05 39.42487 1.81173 23962 ft 448 kts 237°
2026-05-01 12:05 39.39251 1.74312 24628 ft 450 kts 237°
2026-05-01 12:05 39.37609 1.70843 24948 ft 452 kts 237°
2026-05-01 12:06 39.35962 1.67366 25254 ft 454 kts 237°
2026-05-01 12:06 39.34307 1.63877 25562 ft 455 kts 237°
2026-05-01 12:06 39.32646 1.60374 25870 ft 457 kts 237°
2026-05-01 12:06 39.30982 1.56870 26174 ft 458 kts 237°
2026-05-01 12:07 39.29327 1.53387 26458 ft 460 kts 237°
2026-05-01 12:07 39.27653 1.49862 26737 ft 461 kts 237°
2026-05-01 12:07 39.25966 1.46317 27000 ft 463 kts 237°
2026-05-01 12:07 39.24273 1.42763 27272 ft 464 kts 237°
2026-05-01 12:08 39.22599 1.39253 27646 ft 463 kts 237°
2026-05-01 12:08 39.20910 1.35714 28093 ft 460 kts 237°
2026-05-01 12:08 39.19226 1.32196 28527 ft 458 kts 237°
2026-05-01 12:08 39.17552 1.28702 28896 ft 458 kts 237°
2026-05-01 12:09 39.15893 1.25245 29247 ft 457 kts 237°
2026-05-01 12:09 39.14216 1.21752 29646 ft 456 kts 238°
2026-05-01 12:09 39.12547 1.18278 30067 ft 455 kts 237°
2026-05-01 12:09 39.10880 1.14816 30435 ft 453 kts 237°
2026-05-01 12:10 39.09245 1.11410 30865 ft 449 kts 237°
2026-05-01 12:10 39.05995 1.04563 31557 ft 446 kts 236°
2026-05-01 12:10 39.04340 1.01178 31796 ft 447 kts 236°
2026-05-01 12:11 39.01054 0.94442 32442 ft 444 kts 237°
2026-05-01 12:11 38.99417 0.91069 32770 ft 443 kts 237°
2026-05-01 12:11 38.97784 0.87702 33058 ft 442 kts 237°
2026-05-01 12:12 38.96174 0.84375 33333 ft 442 kts 237°
2026-05-01 12:12 38.94549 0.81017 33641 ft 441 kts 237°
2026-05-01 12:12 38.92927 0.77669 33939 ft 440 kts 236°
2026-05-01 12:12 38.91308 0.74320 34190 ft 440 kts 238°
2026-05-01 12:13 38.88085 0.67588 34173 ft 441 kts 242°
2026-05-01 12:13 38.85648 0.60468 34182 ft 437 kts 250°
2026-05-01 12:14 38.83513 0.53201 34194 ft 436 kts 249°
2026-05-01 12:14 38.80982 0.46140 34180 ft 438 kts 238°
2026-05-01 12:15 38.77565 0.39640 34190 ft 438 kts 237°
2026-05-01 12:15 38.74166 0.33212 34170 ft 438 kts 239°
2026-05-01 12:16 38.70801 0.26691 34178 ft 439 kts 239°
2026-05-01 12:16 38.67386 0.20196 34193 ft 439 kts 238°
2026-05-01 12:17 38.63996 0.13709 34190 ft 440 kts 239°
2026-05-01 12:17 38.60587 0.07170 34197 ft 441 kts 239°
2026-05-01 12:18 38.57171 0.00643 34190 ft 442 kts 239°
2026-05-01 12:18 38.53762 -0.05862 34186 ft 442 kts 239°
2026-05-01 12:19 38.50330 -0.12402 34191 ft 442 kts 238°
2026-05-01 12:19 38.46914 -0.18901 34196 ft 443 kts 239°
2026-05-01 12:20 38.43486 -0.25412 34177 ft 443 kts 238°
2026-05-01 12:20 38.40031 -0.31960 34183 ft 443 kts 239°
2026-05-01 12:21 38.36609 -0.38438 34181 ft 443 kts 239°
2026-05-01 12:21 38.33163 -0.44956 34185 ft 442 kts 238°
2026-05-01 12:22 38.30301 -0.50369 34194 ft 442 kts 238°
2026-05-01 12:22 38.26863 -0.56891 34147 ft 442 kts 242°
2026-05-01 12:23 38.24207 -0.63824 34169 ft 438 kts 248°
2026-05-01 12:23 38.21708 -0.70894 34183 ft 437 kts 248°
2026-05-01 12:24 38.19213 -0.77903 34176 ft 437 kts 247°
2026-05-01 12:24 38.16680 -0.84937 34169 ft 437 kts 246°
2026-05-01 12:25 38.12857 -0.95476 34182 ft 438 kts 246°
2026-05-01 12:26 38.10303 -1.02514 34187 ft 439 kts 246°
2026-05-01 12:26 38.06467 -1.13043 34184 ft 440 kts 246°
2026-05-01 12:27 38.02592 -1.23619 34189 ft 440 kts 245°
2026-05-01 12:28 37.98741 -1.34164 34189 ft 440 kts 245°